Location: Harwich
(41.6860°N, 70.0760°W)
Time: 07:23:18
(UTC-04:00)

Daily predictions for brighter satellites

Satellite Brightness Start Highest point End
(mag) Time Altitude Azimuth Time Altitude Azimuth Time Altitude Azimuth
BREEZE-M DEB (TANK) 3.8 19:42:16 10° SW 19:46:15 71° SSE 20:01:08 10° ENE
Cosmos 1666 Rocket 3.9 19:50:11 10° N 19:54:31 47° ENE 19:58:48 10° SSE
Cosmos 1346 Rocket 4.3 19:51:49 10° SSW 19:55:42 43° WNW 19:59:38 10° N
Cosmos 1437 3.5 19:53:58 10° SSW 19:57:05 56° W 20:00:15 10° N
Cosmos 2333 Rocket 2.5 19:52:09 10° S 19:57:28 43° ESE 20:02:46 10° NE
Cosmos 1610 Rocket 4.5 19:52:02 10° S 19:58:07 73° E 20:04:16 10° NNE
H-2A R/B 4.1 19:59:09 10° ENE 19:59:18 10° ENE 19:59:27 10° NE
Cosmos 1844 Rocket 2.7 19:55:22 10° NNW 20:01:05 83° ENE 20:06:44 10° SSE
Cosmos 1408 4.4 19:59:07 10° NE 20:01:19 15° ENE 20:03:31 10° ESE
COSMOS 2428 2.7 19:56:49 10° SSW 20:02:32 81° ESE 20:08:18 10° NNE
Cosmos 1809 Rocket 4.5 19:56:58 10° S 20:03:04 71° E 20:09:14 10° NNE
Resurs 1-3 4.1 20:00:02 10° SE 20:04:08 41° ENE 20:08:16 10° N
Cosmos 2333 4.2 19:58:32 10° SSW 20:04:12 87° ESE 20:09:51 10° NNE
Sich 1 3.0 20:00:29 10° N 20:04:45 67° E 20:08:59 10° SSE
Cosmos 1151 Rocket 4.2 20:01:31 10° SE 20:04:49 22° E 20:08:07 10° NE
ERS-2 2.1 20:02:23 10° SSE 20:06:01 71° ENE 20:09:42 10° N
FREGAT/IRIS 4.5 20:03:22 10° SSW 20:06:03 32° W 20:08:46 10° NNW
CZ-2D R/B 3.3 20:02:42 10° S 20:06:30 80° WSW 20:10:20 10° NNW
Cosmos 1455 2.7 20:03:26 10° SSE 20:06:59 37° E 20:10:34 10° NNE
Cosmos 1844 3.8 20:01:59 10° NNW 20:07:42 74° ENE 20:13:26 10° SSE
Cosmos 2251 Rocket 3.6 20:04:59 10° NNW 20:10:24 89° WSW 20:15:46 10° SSE
Envisat 3.1 20:06:08 10° S 20:11:13 81° WSW 20:16:20 10° NNW
USA 186 1.0 20:09:43 10° SSE 20:11:53 52° ENE 20:14:08 10° N
Cosmos 2219 Rocket 2.2 20:06:35 10° SSW 20:12:11 68° ESE 20:17:49 10° NNE
Meteor 2-2 Rocket 4.3 20:06:30 10° S 20:12:17 71° E 20:18:14 10° NNE
Cosmos 2237 Rocket 2.8 20:09:17 10° SSE 20:14:15 34° ESE 20:19:16 10° NE
Cosmos 1892 2.7 20:10:33 10° N 20:14:27 70° E 20:18:18 10° SSE
BREEZE-M DEB (TANK) 4.1 20:09:56 10° WNW 20:15:37 45° SW 20:18:56 10° SE
YAOGAN 6 2.5 20:15:26 10° SSE 20:18:59 70° ENE 20:22:38 10° N
Meteor 2-14 Rocket 4.4 20:13:31 10° S 20:19:33 71° E 20:25:40 10° NNE
Nadezhda 3 Rocket 4.0 20:15:06 10° N 20:21:27 84° E 20:27:48 10° S
Cosmos 2278 Rocket 2.7 20:18:01 10° NNW 20:23:26 43° ENE 20:27:58 14° SE
Meteor 2-15 Rocket 4.5 20:19:24 10° N 20:25:35 90° W 20:31:43 10° S
Cosmos 1633 Rocket 3.0 20:22:18 10° N 20:26:40 87° ENE 20:31:02 10° S
Genesis I 3.5 20:23:00 10° NNW 20:27:03 57° NE 20:30:04 17° SE
NOAA 11 4.5 20:24:05 10° SE 20:29:23 51° ENE 20:34:43 10° N
Cosmos 2098 Rocket 4.3 20:26:41 14° SE 20:29:26 22° E 20:32:33 10° NE
Meteor 2-16 Rocket 4.4 20:23:31 10° S 20:29:36 70° E 20:35:42 10° NNE
Cosmos 1515 Rocket 3.7 20:33:38 10° S 20:37:59 55° E 20:42:21 10° NNE
Cosmos 1340 4.4 20:35:57 10° SW 20:39:27 35° WNW 20:42:58 10° N
BREEZE-M DEB (TANK) 2.2 20:35:04 10° WNW 20:39:27 75° NNE 20:40:37 28° ESE
Thor Agena Rocket 4.0 20:36:17 10° N 20:41:29 66° WNW 20:46:42 10° SSW
Cosmos 2228 Rocket 3.0 20:38:23 10° S 20:42:42 62° E 20:47:04 10° NNE
Lacrosse 5 4.3 20:42:53 10° NNW 20:45:39 14° N 20:48:26 10° NE
ATLAS 2AS CENTAUR R/B 3.0 20:38:22 10° NW 20:46:19 88° WSW 20:52:16 17° SSE
Cosmos 1825 2.2 20:49:26 10° N 20:53:11 56° E 20:54:53 29° SSE
Spot 2 Rocket 3.5 20:49:02 10° SSE 20:54:04 83° WSW 20:59:11 10° NNW
NOSS 3 (A) 4.5 20:51:50 10° SW 20:54:34 80° NW 20:57:38 10° NNE
Cosmos 1328 Rocket 4.1 20:52:28 10° SSW 20:56:50 61° W 21:01:14 10° N
ATLAS CENTAUR R/B 2.0 20:56:08 10° SW 20:59:42 50° NW 21:03:27 10° NNE
SL-8 R/B 3.6 20:55:36 10° SW 21:00:23 81° SSE 21:05:13 10° ENE
GEOS 3 Rocket 4.4 20:57:07 10° ENE 21:01:42 29° ESE 21:02:45 27° SE
SL-16 R/B 2.7 21:01:33 22° SSE 21:04:23 35° ESE 21:09:29 10° NE
Resurs 01 Rocket 2.8 21:02:47 10° S 21:07:00 42° W 21:11:14 10° NNW
Cosmos 1959 Rocket 4.4 21:03:01 10° S 21:09:09 77° E 21:15:17 10° N
ARGOS 3.3 21:06:46 29° SE 21:09:22 57° ENE 21:14:37 10° N
Cosmos 1470 Rocket 4.0 21:05:26 10° NNW 21:09:47 61° W 21:13:19 15° S
Cosmos 1727 Rocket 4.1 21:04:19 10° N 21:10:24 55° ENE 21:13:28 29° SE
MetOp-B 4.4 21:09:46 31° SE 21:12:04 53° ENE 21:17:16 10° N
BREEZE-M DEB (TANK) 4.2 21:08:48 10° WNW 21:14:37 28° NNW 21:16:53 12° NE
NOSS 3-4 (A) 4.1 21:09:49 10° NNW 21:16:42 55° NE 21:20:26 29° ESE
NOSS 3-4 (C) 4.1 21:09:55 10° NNW 21:16:47 55° NE 21:20:32 29° ESE
SL-08 RB Rocket 3.9 21:18:27 42° ESE 21:19:27 51° ENE 21:23:48 10° N
Cosmos 1869 3.4 21:19:48 23° SSW 21:22:12 78° W 21:26:15 10° N
Meteor 2-10 Rocket 3.7 21:20:50 18° S 21:25:11 77° E 21:31:02 10° NNE
Cosmos 2218 Rocket 4.1 21:20:08 10° S 21:26:29 79° W 21:32:56 10° N
USA 267 3.6 21:22:12 10° ENE 21:28:15 39° SE 21:34:16 10° SSW
SL-08 R/B 4.5 21:23:57 12° S 21:29:48 89° E 21:36:17 10° N
SPOT 1/Viking Rocket 4.3 21:29:01 34° E 21:29:50 36° ENE 21:34:35 10° N
Cosmos 1980 4.5 21:25:10 10° SW 21:30:42 54° WNW 21:36:18 10° NNE
USA 81 4.0 21:25:31 10° N 21:30:48 68° E 21:32:21 45° SSE
ERS-1 Rocket 3.0 21:30:08 46° SE 21:31:24 63° ENE 21:36:22 10° N
Cosmos 407 Rocket 3.4 21:27:55 10° NNW 21:33:03 72° ENE 21:34:17 50° SE
Cosmos 2297 3.7 21:30:15 10° NNW 21:35:54 65° ENE 21:37:25 47° ESE
Cosmos 1408 4.2 21:33:12 10° NNW 21:36:30 32° W 21:38:10 21° SW
H-2A R/B 1.9 21:36:33 49° SSE 21:37:54 79° ENE 21:42:53 10° N
Cosmos 2366 rocket 4.2 21:31:50 10° SSW 21:38:00 71° W 21:44:19 10° N
Cosmos 2333 Rocket 4.2 21:36:58 10° WSW 21:41:51 29° NW 21:46:45 10° N
Cosmos 2369 Rocket 4.0 21:38:26 10° N 21:42:15 18° NE 21:43:31 17° ENE
Cosmos 1371 Rocket 4.5 21:37:17 10° SSW 21:42:32 62° WNW 21:47:52 10° NNE
Cosmos 1441 Rocket 3.6 21:45:32 53° NNE 21:45:32 53° NNE 21:48:29 10° NNE
Helios 1B rocket 3.8 21:46:35 10° NNE 21:48:47 27° NE 21:48:47 27° NE
Landsat 7 4.4 21:51:06 42° ENE 21:51:06 42° ENE 21:55:21 10° N
Cosmos 1707 Rocket 3.7 21:52:59 61° NE 21:52:59 61° NE 21:56:42 10° NNE
Cosmos 676 Rocket 3.9 21:47:55 10° NNW 21:53:10 67° ENE 21:53:36 64° E
CZ-4C R/B 3.8 21:59:36 20° ENE 21:59:36 20° ENE 22:01:35 10° NE
Cosmos 2237 Rocket 3.7 21:53:08 10° WSW 21:58:15 35° WNW 22:03:24 10° N
Cosmos 1869 Rocket 3.7 21:56:29 10° NNW 22:00:50 67° W 22:00:54 67° W
Cosmos 2056 Rocket 4.3 21:58:48 10° SW 22:04:05 51° WNW 22:09:22 10° N
Cosmos 1452 Rocket 3.7 22:05:38 58° ENE 22:05:38 58° ENE 22:10:07 10° NNE
Cosmos 1023 Rocket 4.4 22:00:00 10° NNW 22:05:08 73° ENE 22:05:08 73° ENE
Cosmos 2278 Rocket 3.8 22:02:33 10° NW 22:07:15 27° WSW 22:09:51 19° SW
Helios 1A 3.3 22:08:42 64° NW 22:08:42 64° NW 22:12:25 10° NNW
Terra 2.7 22:09:24 39° NE 22:09:24 39° NE 22:13:08 10° N
Cosmos 1862 4.1 22:06:12 10° NNW 22:09:45 49° WNW 22:09:45 49° WNW
ATLAS 5 CENTAUR R/B 3.8 22:06:10 10° NNW 22:11:00 26° NE 22:12:36 23° ENE
Cosmos 1733 Rocket 4.3 22:08:03 10° N 22:10:52 33° NNE 22:10:52 33° NNE
Cosmos 405 Rocket 3.9 22:15:05 42° NW 22:15:05 42° NW 22:18:19 10° N
Cosmos 1437 Rocket 4.5 22:11:45 10° N 22:13:44 27° NNE 22:13:44 27° NNE
Cosmos 1140 Rocket 3.6 22:22:18 10° NNW 22:27:07 69° WNW 22:27:07 69° WNW
SPOT 5 3.3 22:28:34 53° WNW 22:28:34 53° WNW 22:32:24 10° NNW
ATLAS 2A CENTAUR R/B 4.5 22:17:00 10° WSW 22:27:46 29° SSW 22:27:46 29° SSW
Lacrosse 5 3.3 22:25:43 10° NNW 22:30:08 29° NNE 22:30:32 29° NE
Cosmos 1934 Rocket 3.8 22:33:04 77° ENE 22:33:04 77° ENE 22:38:53 10° N
Cosmos 1954 Rocket 4.4 22:32:08 10° NNW 22:36:48 55° W 22:36:48 55° W
GEOS 3 Rocket 4.4 22:34:41 10° NNE 22:39:53 52° NW 22:43:43 18° WSW
Nimbus 7 Rocket 4.5 22:39:48 10° NNE 22:44:54 66° NE 22:44:54 66° NE
CZ-2C R/B 3.9 22:49:11 40° N 22:49:11 40° N 22:52:22 10° N
SL-16 R/B 3.6 22:43:21 10° WSW 22:48:28 34° WNW 22:53:37 10° N
Cosmos 2344 3.7 22:45:07 10° SW 22:52:41 72° NW 23:01:09 10° NNE
Cosmos 1943 Rocket 3.1 22:50:20 10° NNW 22:54:37 39° NNE 22:54:37 39° NNE
USA 267 3.6 23:04:59 10° NE 23:11:26 63° NW 23:17:52 10° WSW
Cosmos 1603 4.4 23:16:16 51° NNW 23:16:16 51° NNW 23:20:47 10° NNE
Cosmos 2123 Rocket 4.4 23:10:01 10° NNW 23:15:50 55° W 23:15:50 55° W
Cosmos 1943 4.3 23:21:18 37° NNE 23:21:18 37° NNE 23:24:39 10° NNE
Cosmos 2369 Rocket 3.0 23:21:15 10° NNW 23:25:18 48° NW 23:25:18 48° NW
CZ-2C R/B 3.7 23:35:55 10° N 23:39:33 42° NNW 23:39:33 42° NNW
USA 234 3.4 23:45:38 67° NNW 23:45:38 67° NNW 23:51:16 10° NW
CZ-4C R/B 3.4 23:44:41 37° NW 23:44:50 37° NW 23:50:25 10° NNE
Terra 4.2 23:48:17 17° WNW 23:48:17 17° WNW 23:50:05 10° NW
